Location: Rounton
(54.4000°N, 1.3500°W)
Time: 12:51:50
(UTC+00:00)

Transit 2A - Pass Details

Date: 02 December 2021
Orbit: 591 x 967 km, 66.7° (Epoch: 17 January)

Event Time Altitude Azimuth Distance (km) Brightness Sun altitude
Rises 10:09:09 0° 315° (NW) 3,660 8.9 10.3°
Reaches altitude 10° 10:12:05 10° 305° (NW) 2,716 8.4 10.5°
Maximum altitude 10:17:18 27° 250° (WSW) 1,746 7.9 10.8°
Drops below altitude 10° 10:22:23 10° 195° (SSW) 2,635 9.8 11.0°
Sets 10:25:12 0° 184° (S) 3,532 10.7 11.2°
